Weather History for Springfield, CO

Change the Weather History Date:

Tuesday, April 9, 2013

  Actual Average Record
Temperature  
Mean Temperature 34 °F -  
Max Temperature 54 °F 65 °F 84 °F (2006)
Min Temperature 14 °F 34 °F 14 °F (2013)
Degree Days  
Heating Degree Days 31 15  
Month to date heating degree days 165 149  
Since 1 July heating degree days 4623 4842  
Cooling Degree Days 0 0  
Month to date cooling degree days 0 0  
Year to date cooling degree days 0 0  
Moisture  
Dew Point 15 °F    
Average Humidity 57    
Maximum Humidity 84    
Minimum Humidity 30    
Precipitation  
Precipitation 0.00 in 0.05 in 0.27 in (2004)
Month to date precipitation 0.04 0.34  
Year to date precipitation 0.34 2.28  
Sea Level Pressure  
Sea Level Pressure 29.83 in    
Wind  
Wind Speed 32 mph (North)    
Max Wind Speed 41 mph    
Max Gust Speed 48 mph    
T = Trace of Precipitation, MM = Missing Value Source: NWS Daily Summary

Daily Weather History Graph

Daily Weather History Graph

Search for Another Location

Airport:

Trip Planner

Search our weather history database for the weather conditions in past years. The results will help you decide how hot, cold, wet, or windy it might be!

Date:

Astronomy

Apr. 09, 2013 Rise Set
Actual Time 6:23 AM MDT 7:20 PM MDT
Civil Twilight 5:57 AM MDT 7:47 PM MDT
Nautical Twilight 5:25 AM MDT 8:18 PM MDT
Astronomical Twilight 4:53 AM MDT 8:51 PM MDT
Moon 5:47 AM MDT (4/9) 6:58 PM MDT (4/9)
Length of Visible Light 13h 49m
Length of Day
12h 56m
Waning Crescent, 0% of the Moon is Illuminated
Apr 9
Waning Crescent
Apr 10
New
Apr 18
First Quarter
Apr 25
Full
May 2
Last Quarter

Hourly Weather History & Observations

Time (MDT) Temp. Windchill Dew Point Humidity Pressure Visibility Wind Dir Wind Speed Gust Speed Precip Events Conditions
12:56 AM 52.0 °F - 21.0 °F 30% 29.33 in - NNW 19.6 mph 27.6 mph N/A   Unknown
1:56 AM 42.1 °F 31.0 °F 30.9 °F 65% 29.39 in - NNW 32.2 mph 42.6 mph N/A   Unknown
2:56 AM 39.0 °F 26.8 °F 30.0 °F 70% 29.44 in - North 32.2 mph 42.6 mph N/A   Unknown
3:56 AM 37.0 °F 23.5 °F 28.9 °F 73% 29.48 in - North 35.7 mph 44.9 mph N/A   Unknown
4:56 AM 30.9 °F 15.7 °F 21.9 °F 69% 29.57 in - North 32.2 mph 42.6 mph N/A   Unknown
5:56 AM 28.0 °F 10.7 °F 19.0 °F 69% 29.59 in - North 38.0 mph 46.0 mph N/A   Unknown
6:56 AM 26.1 °F 8.1 °F 18.0 °F 71% 29.67 in - North 36.8 mph 46.0 mph N/A   Unknown
7:56 AM 23.0 °F 4.9 °F 17.1 °F 78% 29.73 in - North 32.2 mph 40.3 mph N/A   Unknown
8:56 AM 21.9 °F 3.1 °F 17.1 °F 82% 29.79 in - North 33.4 mph 39.1 mph N/A   Unknown
9:56 AM 21.9 °F 2.6 °F 15.1 °F 75% 29.81 in - North 35.7 mph 43.7 mph N/A   Unknown
10:56 AM 24.1 °F 6.4 °F 14.0 °F 65% 29.83 in - North 32.2 mph 42.6 mph N/A   Unknown
11:56 AM 24.1 °F 5.6 °F 12.9 °F 62% 29.86 in - North 35.7 mph 44.9 mph N/A   Unknown
12:56 PM 26.1 °F 8.4 °F 12.9 °F 58% 29.83 in - North 35.7 mph 43.7 mph N/A   Unknown
1:56 PM 25.0 °F 7.1 °F 12.0 °F 58% 29.90 in - North 34.5 mph 42.6 mph N/A   Unknown
2:56 PM 26.1 °F 9.8 °F 12.9 °F 58% 29.93 in - North 28.8 mph 38.0 mph N/A   Unknown
3:56 PM 24.1 °F 7.4 °F 12.9 °F 62% 29.96 in - North 27.6 mph 36.8 mph N/A   Unknown
4:56 PM 23.0 °F 4.1 °F 12.9 °F 65% 29.99 in - North 35.7 mph 40.3 mph N/A   Unknown
5:56 PM 23.0 °F 4.6 °F 10.0 °F 58% 30.04 in - North 33.4 mph 39.1 mph N/A   Unknown
6:56 PM 21.0 °F 2.4 °F 8.1 °F 57% 30.06 in - North 31.1 mph 38.0 mph N/A   Unknown
7:56 PM 18.0 °F -2.0 °F 7.0 °F 62% 30.09 in - North 32.2 mph 40.3 mph N/A   Unknown
8:56 PM 18.0 °F -2.3 °F 6.1 °F 60% 30.14 in - North 33.4 mph 39.1 mph N/A   Unknown
9:56 PM 17.1 °F -1.4 °F 6.1 °F 62% 30.14 in - North 25.3 mph 40.3 mph N/A   Unknown
10:56 PM 16.0 °F -3.2 °F 5.0 °F 62% 30.13 in - North 26.5 mph 38.0 mph N/A   Unknown
11:56 PM 15.1 °F -4.7 °F 3.9 °F 61% 30.17 in - North 27.6 mph 40.3 mph N/A   Unknown